TimeEDT,TemperatureF,Dew PointF,Humidity,Sea Level PressureIn,VisibilityMPH,Wind Direction,Wind SpeedMPH,Gust SpeedMPH,PrecipitationIn,Events,Conditions,WindDirDegrees,DateUTC
12:05 AM,62.6,60.8,94,30.09,4.0,SSE,10.4,-,N/A,,Overcast,160,2007-10-23 04:05:00
12:54 AM,63.0,61.0,93,30.04,6.0,SSE,6.9,-,0.02,,Overcast,150,2007-10-23 04:54:00
2:18 AM,62.6,60.8,94,30.06,2.0,SE,5.8,-,0.06,Rain,Heavy Rain,140,2007-10-23 06:18:00
2:32 AM,62.6,60.8,94,30.05,6.0,SE,6.9,-,0.12,Rain,Light Rain,130,2007-10-23 06:32:00
3:54 AM,63.0,60.1,90,29.98,7.0,SSE,6.9,-,0.02,Rain,Light Rain,160,2007-10-23 07:54:00
4:39 AM,62.6,60.8,94,30.01,9.0,SE,3.5,-,0.02,Rain,Light Rain,140,2007-10-23 08:39:00
4:52 AM,62.6,60.8,94,30.00,10.0,SE,6.9,-,0.02,Rain,Light Rain,140,2007-10-23 08:52:00
4:54 AM,64.0,60.1,87,29.95,10.0,SE,6.9,-,0.02,,Overcast,140,2007-10-23 08:54:00
5:54 AM,63.0,61.0,93,29.94,7.0,SSE,4.6,-,0.05,Rain,Light Rain,150,2007-10-23 09:54:00
6:49 AM,64.4,62.6,94,29.99,7.0,SSE,9.2,-,0.00,Rain,Light Rain,150,2007-10-23 10:49:00
6:54 AM,64.0,62.1,93,29.93,10.0,SSE,8.1,-,0.01,Rain,Light Rain,150,2007-10-23 10:54:00
7:09 AM,64.4,62.6,94,29.99,10.0,SSE,6.9,-,0.00,,Overcast,160,2007-10-23 11:09:00
7:45 AM,64.4,62.6,94,29.99,10.0,SSE,8.1,-,0.00,,Overcast,150,2007-10-23 11:45:00
7:54 AM,64.0,62.1,93,29.93,8.0,SE,8.1,-,0.00,Rain,Light Rain,140,2007-10-23 11:54:00
8:54 AM,64.9,62.1,90,29.93,7.0,SSE,9.2,-,0.01,Rain,Light Rain,150,2007-10-23 12:54:00
9:02 AM,64.4,62.6,94,29.98,10.0,SSE,9.2,-,0.00,Rain,Light Rain,150,2007-10-23 13:02:00
9:54 AM,66.9,63.0,87,29.91,10.0,SSE,8.1,-,0.00,,Overcast,150,2007-10-23 13:54:00
10:01 AM,66.2,62.6,88,29.97,10.0,SE,8.1,-,N/A,,Overcast,140,2007-10-23 14:01:00
10:54 AM,69.1,64.0,84,29.90,10.0,SSE,9.2,-,N/A,,Overcast,160,2007-10-23 14:54:00
11:54 AM,71.1,64.0,78,29.89,10.0,South,13.8,-,N/A,,Mostly Cloudy,190,2007-10-23 15:54:00
12:16 PM,71.6,64.4,78,29.95,10.0,South,20.7,26.5,N/A,,Mostly Cloudy,180,2007-10-23 16:16:00
12:54 PM,73.0,64.9,76,29.88,10.0,South,18.4,25.3,0.00,,Overcast,170,2007-10-23 16:54:00
1:50 PM,73.4,64.4,73,29.92,10.0,South,13.8,23.0,0.00,,Mostly Cloudy,190,2007-10-23 17:50:00
1:54 PM,73.0,64.0,73,29.85,10.0,SSW,11.5,20.7,0.00,,Mostly Cloudy,210,2007-10-23 17:54:00
2:51 PM,73.4,62.6,69,29.90,10.0,South,13.8,-,N/A,,Overcast,190,2007-10-23 18:51:00
3:54 PM,75.0,64.0,69,29.81,10.0,South,18.4,23.0,N/A,,Scattered Clouds,190,2007-10-23 19:54:00
4:54 PM,73.9,63.0,68,29.80,10.0,SSW,18.4,-,N/A,,Partly Cloudy,200,2007-10-23 20:54:00
5:54 PM,73.0,64.0,73,29.79,10.0,South,13.8,-,N/A,,Partly Cloudy,170,2007-10-23 21:54:00
6:54 PM,72.0,64.0,76,29.80,7.0,SW,8.1,-,0.00,Rain,Light Rain,230,2007-10-23 22:54:00
6:58 PM,69.8,64.4,83,29.86,1.8,South,11.5,19.6,0.10,Rain,Heavy Rain,170,2007-10-23 22:58:00
7:05 PM,69.8,64.4,83,29.86,2.0,South,10.4,-,0.18,Rain,Light Rain,180,2007-10-23 23:05:00
7:12 PM,68.0,64.4,88,29.85,4.0,South,9.2,-,0.18,,Scattered Clouds,190,2007-10-23 23:12:00
7:54 PM,66.9,64.9,93,29.79,4.0,SSE,3.5,-,0.18,,Partly Cloudy,150,2007-10-23 23:54:00
8:54 PM,70.0,64.9,84,29.78,10.0,SSE,8.1,-,0.00,Rain,Light Rain,160,2007-10-24 00:54:00
9:40 PM,69.8,66.2,88,29.85,3.0,SE,8.1,-,0.05,Rain,Heavy Rain,140,2007-10-24 01:40:00
9:45 PM,69.8,66.2,88,29.85,1.8,SSE,8.1,-,0.12,Rain,Heavy Rain,150,2007-10-24 01:45:00
9:52 PM,69.8,66.2,88,29.85,2.5,South,5.8,-,0.17,Rain,Heavy Rain,180,2007-10-24 01:52:00
9:54 PM,69.1,66.0,90,29.78,2.5,South,4.6,-,0.19,Rain,Heavy Rain,180,2007-10-24 01:54:00
10:14 PM,69.8,66.2,88,29.86,1.5,South,16.1,-,0.24,Rain,Heavy Rain,180,2007-10-24 02:14:00
10:27 PM,69.8,64.4,83,29.85,2.5,SSE,11.5,-,0.35,Rain,Light Rain,150,2007-10-24 02:27:00
10:34 PM,68.0,64.4,88,29.86,8.0,South,9.2,-,0.35,Rain,Light Rain,170,2007-10-24 02:34:00
10:43 PM,68.0,64.4,88,29.86,7.0,South,6.9,-,0.35,Rain,Light Rain,190,2007-10-24 02:43:00
10:54 PM,68.0,64.9,90,29.80,7.0,South,10.4,-,0.35,Rain,Light Rain,180,2007-10-24 02:54:00
11:15 PM,68.0,64.4,88,29.87,10.0,South,13.8,-,0.01,Rain,Light Rain,190,2007-10-24 03:15:00
11:54 PM,66.9,64.0,90,29.80,10.0,SSE,4.6,-,0.03,,Overcast,150,2007-10-24 03:54:00